SCP
0 0 0 0 0 0 0 0 0 0 -0 -0 -0 0 0 0 0 0 0 0 0 0 0 -0 0 0 0 0 0 0 0 0 0 0 0 0 0 0 0 0 0 0 0
0 0 0 0 0 0 0 0 0 0 0 -0 0 -0 -0 -0 0 0 0 0 0 0 0 0 0 0 0 0 0 0 0 0 0 0 0 0 0 0 0 0 0 0 0
0 0 0 0 0 0 0 0 0 0 0 0 0 0 -0 -0 -0 -0 -0 -0 -0 -0 0 0 0 0 0 0 0 0 0 0 0 0 0 0 0 0 0 0 0 0 0
0 0 0 0 0 0 0 0 0 0 0 0 0 0 -0 -0 -0 -0 -0 -0 -0 -0 -0 -0 0 0 0 0 0 0 0 0 0 0 0 0 0 0 0 0 0 0 0
0 0 0 0 0 0 0 0 0 0 0 0 0 0 0 -0 -0 -0 -0 -0 -0 -0 -0 0 -0 -0 -0 -0 -0 -0 0 0 0 0 0 0 0 0 0 0 0 0 0
0 0 0 0 0 0 0 0 0 0 0 0 -0 0 0 0 0 0 0 0 0 0 0 -0 0 0 0 -0 -0 -0 -0 -0 0 0 0 0 0 0 0 0 0 0 0
0 0 0 0 0 0 0 0 0 0 0 0 0 0 0 0 0 0 0 0 0 0 0 0 0 0 0 0 0 0 0 0 0 0 0 0 0 0 -0 0 0 0 0
0 0 0 0 0 0 0 0 0 0 0 0 0 0 0 0 0 0 0 0 0 0 0 0 0 0 0 0 0 0 0 0 0 0 0 0 0 -0 -0 -0 0 0 0
0 0 0 0 0 -0 -0 0 0 0 0 0 0 0 0 0 0 0 0 0 0 0 0 0 0 0 0 0 0 0 0 0 0 0 0 0 0 -0 -0 0 0 0 0
0 0 0 0 0 -0 -0 0 0 0 0 0 0 0 0 0 0 0 0 0 0 0 0 0 0 0 0 0 0 0 0 0 0 0 0 0 0 0 0 0 0 0 0
0 0 0 0 0 0 0 0 0 0 0 0 0 0 0 0 0 0 0 0 0 0 0 0 0 0 0 0 0 0 0 0 0 0 0 0 0 0 0 0 0 0 0
0 0 0 0 0 0 0 0 0 0 0 0 0 0 0 0 0 0 0 0 0 0 0 0 0 0 0 0 0 0 0 0 0 0 0 0 0 0 0 0 0 0 0
0 0 0 0 0 0 0 0 0 0 0 0 0 0 0 0 0 0 0 0 0 0 0 0 0 0 0 0 0 0 0 0 0 0 0 0 0 0 0 0 0 0 0
0 0 0 0 0 0 0 0 0 0 0 0 0 0 0 0 0 0 0 0 0 0 0 0 0 0 0 0 0 0 0 0 0 0 0 0 0 0 0 0 0 0 0
0 0 0 0 0 0 0 0 0 0 0 0 0 0 0 0 0 0 0 0 0 0 0 0 0 0 0 0 0 0 0 0 0 0 0 0 0 0 0 0 0 0 0
0 0 0 0 0 0 0 0 0 0 0 0 0 0 0 0 0 0 0 0 0 0 0 0 0 0 0 0 0 0 0 0 0 0 0 0 0 0 0 0 0 0 0
0 0 0 0 0 0 0 0 0 0 0 0 0 0 0 0 0 0 0 0 0 0 0 0 0 0 0 0 0 0 0 0 0 0 0 0 0 0 0 0 0 0 0
0 0 0 0 0 0 0 0 0 0 0 0 0 0 0 0 0 0 0 0 0 0 0 0 0 0 0 0 0 0 0 0 0 0 0 0 0 0 0 0 0 0 0
1 0 0 0 0 0 0 0 0 0 0 0 0 0 0 0 0 0 0 0 0 0 0 0 0 0 0 0 0 0 0 0 0 0 0 0 0 0 0 0 0 0 0
1 0 0 0 0 0 0 0 0 0 0 0 0 0 0 0 0 0 0 0 0 0 0 0 0 0 0 0 0 0 0 0 0 0 0 0 0 0 0 0 0 0 0
1 1 0 0 0 0 0 0 0 0 0 0 0 0 0 0 0 0 0 0 0 0 0 0 0 0 0 0 0 0 0 0 0 0 0 0 0 0 0 0 0 0 0
1 1 0 1 1 1 0 0 0 0 0 0 0 0 0 0 0 0 0 0 0 0 0 0 0 0 0 0 0 0 0 0 0 0 0 0 0 0 0 0 0 0 0
1 1 1 1 1 1 0 0 0 0 0 0 0 0 0 0 0 0 0 0 0 0 0 0 0 0 0 0 0 0 0 0 0 0 0 0 0 0 0 0 0 0 0
0 0 0 0 0 1 0 0 0 0 0 0 0 0 0 0 0 0 0 0 0 0 0 0 0 0 0 0 0 0 0 0 0 0 0 0 0 0 0 0 0 0 0
0 0 0 0 0 0 0 0 0 0 0 0 0 0 0 0 0 0 0 0 0 0 0 0 0 0 0 0 0 0 0 0 0 0 0 0 0 0 0 0 0 0 0
0 0 0 0 0 0 0 0 0 0 1 1 0 0 0 0 0 0 0 0 0 0 0 0 0 0 0 0 0 0 0 0 0 0 0 0 0 0 0 0 0 0 0
Wind_Speed_500mb
7 8 9 2 6 5 5 12 13 15 17 16 18 18 17 15 15 14 12 11 13 18 23 23 20 19 18 17 18 21 23 24 24 23 22 20 19 18 17 17 17 15 13
10 13 12 2 7 11 7 11 6 9 14 16 19 19 20 17 15 15 14 16 22 24 26 27 28 28 29 29 30 31 32 33 33 31 28 25 21 19 19 18 19 20 19
13 16 11 7 7 10 14 18 9 11 11 12 12 13 16 15 15 18 18 17 21 25 25 27 28 27 25 24 23 26 27 29 30 33 34 29 26 23 22 23 23 22 21
15 16 12 10 10 12 15 20 12 19 17 12 9 6 7 10 11 14 16 17 16 14 20 21 21 22 21 20 22 24 24 23 24 26 28 32 28 22 20 22 23 24 25
18 16 14 12 10 14 16 15 13 21 22 17 15 12 10 9 9 9 10 8 8 10 10 9 10 12 14 16 16 15 16 17 19 24 27 29 29 26 24 24 25 25 25
20 19 17 14 13 16 19 15 16 23 21 22 23 23 21 19 18 16 13 13 9 7 6 6 7 6 1 4 5 4 5 8 11 15 21 26 27 25 24 24 23 25 28
24 19 19 17 14 14 15 20 23 23 24 21 25 27 31 32 30 29 27 23 21 19 16 14 13 14 13 9 8 7 8 8 8 11 15 22 26 27 25 24 26 27 28
24 20 19 18 15 17 21 18 25 25 27 26 21 20 20 24 39 40 38 36 31 29 27 25 24 23 22 21 22 18 17 17 19 18 17 21 26 28 25 24 26 27 26
25 23 21 22 21 18 17 19 24 27 22 32 34 22 11 18 11 22 41 44 41 39 37 36 32 32 33 32 31 29 27 25 25 24 25 25 28 25 22 25 24 26 26
24 25 24 25 26 20 17 19 23 29 29 24 35 40 40 27 15 11 15 28 37 42 42 43 43 41 43 41 39 37 34 28 31 28 26 26 26 24 23 25 25 24 25
27 27 28 27 33 30 29 27 27 26 27 25 25 32 36 39 36 24 20 14 22 25 32 40 41 42 42 45 44 42 39 32 30 31 31 29 28 28 24 26 29 28 26
29 28 30 28 38 36 36 33 29 26 27 27 28 33 33 26 27 27 26 23 19 17 24 30 31 29 31 37 46 44 41 36 29 27 34 33 32 34 29 26 33 33 28
25 27 31 30 34 39 38 37 33 29 30 33 31 34 36 39 38 32 27 24 23 21 20 30 30 29 31 31 37 39 42 30 26 30 34 38 36 38 35 32 36 40 38
22 26 27 28 32 39 43 42 38 35 33 34 35 36 37 38 37 36 32 27 23 24 22 25 29 28 26 24 30 37 29 28 23 27 39 41 38 39 38 38 39 43 44
24 24 25 25 29 34 40 43 44 40 39 39 35 38 35 36 39 39 38 32 28 28 25 26 22 26 25 27 32 37 38 33 31 34 33 39 40 42 43 43 44 47 48
31 32 31 30 30 31 33 39 40 40 43 41 37 39 37 36 36 37 39 38 34 29 31 22 22 25 28 32 38 40 38 40 41 54 40 39 39 42 46 47 49 51 51
37 37 28 33 38 38 37 40 40 40 42 42 41 43 40 39 40 36 37 37 35 32 33 27 25 27 34 33 37 41 34 24 22 27 30 33 37 44 49 53 56 54 53
44 37 35 36 39 43 46 44 42 44 43 44 43 46 45 43 44 48 43 44 43 41 36 33 35 32 35 38 38 32 27 22 20 28 31 34 41 43 46 44 41 38 36
40 41 31 28 30 30 31 39 43 47 50 49 52 49 48 44 51 48 53 49 51 46 47 50 49 38 42 41 43 40 32 27 27 26 29 29 28 25 27 28 28 29 30
39 35 33 35 33 34 33 35 42 48 55 58 55 56 54 52 51 55 56 60 59 63 57 54 56 47 45 45 44 40 33 32 26 27 24 22 25 27 32 28 24 23 22
32 33 39 43 42 39 36 34 37 43 43 44 52 52 54 53 56 62 60 60 65 67 64 63 61 52 48 49 42 35 33 34 29 29 17 18 21 23 22 22 18 21 21
25 25 24 22 24 28 29 35 40 43 44 43 37 40 52 49 57 57 62 56 64 62 71 68 67 59 51 43 35 33 31 32 26 24 22 21 24 21 22 17 20 19 17
20 21 20 21 22 23 27 33 38 45 49 49 42 35 31 37 42 51 57 58 47 53 57 59 70 54 44 28 30 31 32 38 34 24 27 21 21 18 18 18 20 16 12
29 38 31 31 36 39 35 36 43 41 44 49 47 47 48 56 51 46 47 52 50 48 45 46 50 44 30 27 32 33 25 19 28 33 28 23 19 17 17 14 13 13 14
34 35 37 41 40 45 41 50 56 51 42 41 44 46 46 48 41 45 49 47 52 45 43 44 42 35 35 39 35 28 14 28 27 24 23 17 16 13 12 5 3 10 12
38 43 39 42 48 51 43 47 43 44 50 50 52 51 46 37 40 49 49 53 48 41 51 47 41 37 36 33 32 27 24 24 25 22 25 18 13 9 11 11 11 15 13
Wind_Direction_500mb
348 338 341 307 185 197 127 110 99 81 76 80 74 72 85 91 91 99 96 80 75 80 82 81 84 86 87 88 89 88 85 81 78 72 67 59 51 42 37 31 23 19 16
335 335 332 309 191 210 190 164 120 115 102 97 88 83 90 98 93 99 108 90 86 91 90 86 86 86 88 91 93 92 90 85 77 68 62 56 50 44 37 29 20 13 8
323 321 300 299 250 215 213 210 329 177 162 127 111 99 96 104 93 101 103 116 97 92 92 91 84 85 87 93 101 98 90 83 73 64 58 53 47 41 37 31 21 10 0
311 313 309 300 272 235 229 235 295 206 194 188 169 139 129 125 122 116 108 106 110 123 99 94 87 82 80 90 97 97 92 83 70 59 51 47 42 35 22 12 5 1 357
308 311 310 306 274 242 254 256 259 210 211 223 223 215 212 197 180 160 157 134 109 102 120 99 94 87 76 81 99 97 87 74 58 46 38 32 26 21 12 1 353 346 338
294 304 300 295 269 255 252 261 228 219 221 236 230 234 237 236 229 219 207 207 212 200 193 184 213 231 54 90 104 107 76 57 40 29 20 14 12 9 358 352 349 344 343
286 292 290 280 261 246 240 266 236 223 226 222 221 238 245 244 242 239 234 230 230 231 236 242 247 234 243 257 257 256 264 296 336 345 350 354 354 354 354 349 341 341 338
283 287 283 266 253 253 280 244 223 223 233 230 221 231 248 252 249 248 247 245 243 242 244 247 250 256 253 245 245 262 267 264 272 294 316 333 337 346 349 330 324 329 331
284 288 285 255 252 251 259 243 237 235 235 243 238 231 235 243 234 245 246 246 245 248 246 248 254 258 259 257 254 252 259 271 268 269 280 312 322 335 323 327 324 322 326
279 287 291 251 241 240 242 248 253 246 243 245 247 242 241 243 261 269 260 246 249 255 250 247 253 257 260 260 260 252 252 266 276 281 289 282 296 311 316 325 324 316 320
288 286 289 255 234 236 238 253 268 254 248 247 244 245 243 247 253 249 262 252 254 253 242 245 252 261 261 256 255 253 247 251 265 277 281 281 282 291 305 319 323 317 314
292 283 288 262 242 242 242 253 262 257 256 257 250 241 239 242 245 242 246 249 243 252 247 251 259 265 270 272 255 252 243 248 254 274 280 278 278 278 289 308 320 321 309
291 287 289 266 249 245 248 254 258 259 263 261 257 251 248 248 248 248 241 245 246 245 248 261 264 273 278 273 257 247 243 234 260 289 288 271 270 271 280 294 308 316 312
275 279 287 269 261 252 252 253 259 261 263 259 264 255 253 250 246 246 245 242 251 244 247 250 265 275 279 257 244 240 234 254 267 279 275 268 271 277 272 282 294 305 309
282 272 271 272 264 260 257 255 255 260 262 261 252 255 250 250 248 251 252 248 241 249 252 256 244 269 254 241 242 243 251 258 263 277 283 265 269 272 268 273 285 294 302
298 290 283 271 266 265 263 260 258 259 258 255 256 255 248 251 254 251 251 250 245 243 257 249 243 245 247 253 262 260 253 254 264 278 282 278 272 272 270 272 280 287 292
294 296 288 291 288 277 266 268 266 265 259 257 253 252 251 251 252 251 255 254 248 243 248 246 240 251 260 247 259 263 263 279 274 274 284 282 285 282 277 279 280 282 286
292 281 283 285 291 284 268 263 262 265 265 262 259 252 253 252 253 257 252 256 254 255 251 249 247 264 263 262 260 257 260 266 265 280 287 292 289 286 284 282 282 279 278
288 286 287 292 295 301 290 276 268 262 262 263 259 255 251 252 253 254 251 252 252 250 247 249 254 263 261 261 251 259 248 260 267 277 297 299 299 305 304 301 296 281 278
288 285 281 280 281 283 283 284 280 276 265 261 255 253 253 254 258 255 255 260 248 248 248 246 252 256 257 250 255 245 254 245 252 274 299 299 304 311 320 302 294 291 289
286 281 281 283 282 282 288 290 293 292 282 279 270 259 256 258 268 259 260 265 257 254 247 243 252 247 248 247 256 249 241 253 262 258 276 293 293 299 307 314 296 288 291
295 288 290 293 294 289 293 294 295 291 287 282 277 266 267 263 271 266 263 264 266 258 249 244 246 244 251 255 248 233 252 247 239 259 277 301 294 298 298 296 285 294 303
298 302 301 301 300 303 311 306 297 288 282 279 275 274 282 293 283 274 271 268 263 265 256 252 251 243 250 233 233 243 253 262 243 250 271 286 295 300 301 300 292 283 294
312 317 304 310 310 309 308 319 317 303 292 279 270 272 274 273 277 289 272 268 260 253 250 253 239 242 220 227 231 249 239 237 242 243 265 279 288 302 300 305 304 275 277
303 296 299 302 301 291 294 300 298 303 296 295 290 281 274 276 280 277 278 272 261 256 243 233 229 213 209 228 241 239 231 240 243 244 251 261 285 296 295 281 326 335 315
315 307 304 309 297 307 303 299 289 292 286 287 291 296 286 284 295 288 273 268 268 259 228 217 205 207 218 234 235 231 225 227 239 241 246 253 266 280 285 269 264 304 296
Wind_Speed_850mb
7 8 9 2 6 5 5 12 13 15 17 16 18 18 17 15 15 14 12 11 13 18 23 23 20 19 18 17 18 21 23 24 24 23 22 20 19 18 17 17 17 15 13
10 13 12 2 7 11 7 11 6 9 14 16 19 19 20 17 15 15 14 16 22 24 26 27 28 28 29 29 30 31 32 33 33 31 28 25 21 19 19 18 19 20 19
13 16 11 7 7 10 14 18 9 11 11 12 12 13 16 15 15 18 18 17 21 25 25 27 28 27 25 24 23 26 27 29 30 33 34 29 26 23 22 23 23 22 21
15 16 12 10 10 12 15 20 12 19 17 12 9 6 7 10 11 14 16 17 16 14 20 21 21 22 21 20 22 24 24 23 24 26 28 32 28 22 20 22 23 24 25
18 16 14 12 10 14 16 15 13 21 22 17 15 12 10 9 9 9 10 8 8 10 10 9 10 12 14 16 16 15 16 17 19 24 27 29 29 26 24 24 25 25 25
20 19 17 14 13 16 19 15 16 23 21 22 23 23 21 19 18 16 13 13 9 7 6 6 7 6 1 4 5 4 5 8 11 15 21 26 27 25 24 24 23 25 28
24 19 19 17 14 14 15 20 23 23 24 21 25 27 31 32 30 29 27 23 21 19 16 14 13 14 13 9 8 7 8 8 8 11 15 22 26 27 25 24 26 27 28
24 20 19 18 15 17 21 18 25 25 27 26 21 20 20 24 39 40 38 36 31 29 27 25 24 23 22 21 22 18 17 17 19 18 17 21 26 28 25 24 26 27 26
25 23 21 22 21 18 17 19 24 27 22 32 34 22 11 18 11 22 41 44 41 39 37 36 32 32 33 32 31 29 27 25 25 24 25 25 28 25 22 25 24 26 26
24 25 24 25 26 20 17 19 23 29 29 24 35 40 40 27 15 11 15 28 37 42 42 43 43 41 43 41 39 37 34 28 31 28 26 26 26 24 23 25 25 24 25
27 27 28 27 33 30 29 27 27 26 27 25 25 32 36 39 36 24 20 14 22 25 32 40 41 42 42 45 44 42 39 32 30 31 31 29 28 28 24 26 29 28 26
29 28 30 28 38 36 36 33 29 26 27 27 28 33 33 26 27 27 26 23 19 17 24 30 31 29 31 37 46 44 41 36 29 27 34 33 32 34 29 26 33 33 28
25 27 31 30 34 39 38 37 33 29 30 33 31 34 36 39 38 32 27 24 23 21 20 30 30 29 31 31 37 39 42 30 26 30 34 38 36 38 35 32 36 40 38
22 26 27 28 32 39 43 42 38 35 33 34 35 36 37 38 37 36 32 27 23 24 22 25 29 28 26 24 30 37 29 28 23 27 39 41 38 39 38 38 39 43 44
24 24 25 25 29 34 40 43 44 40 39 39 35 38 35 36 39 39 38 32 28 28 25 26 22 26 25 27 32 37 38 33 31 34 33 39 40 42 43 43 44 47 48
31 32 31 30 30 31 33 39 40 40 43 41 37 39 37 36 36 37 39 38 34 29 31 22 22 25 28 32 38 40 38 40 41 54 40 39 39 42 46 47 49 51 51
37 37 28 33 38 38 37 40 40 40 42 42 41 43 40 39 40 36 37 37 35 32 33 27 25 27 34 33 37 41 34 24 22 27 30 33 37 44 49 53 56 54 53
44 37 35 36 39 43 46 44 42 44 43 44 43 46 45 43 44 48 43 44 43 41 36 33 35 32 35 38 38 32 27 22 20 28 31 34 41 43 46 44 41 38 36
40 41 31 28 30 30 31 39 43 47 50 49 52 49 48 44 51 48 53 49 51 46 47 50 49 38 42 41 43 40 32 27 27 26 29 29 28 25 27 28 28 29 30
39 35 33 35 33 34 33 35 42 48 55 58 55 56 54 52 51 55 56 60 59 63 57 54 56 47 45 45 44 40 33 32 26 27 24 22 25 27 32 28 24 23 22
32 33 39 43 42 39 36 34 37 43 43 44 52 52 54 53 56 62 60 60 65 67 64 63 61 52 48 49 42 35 33 34 29 29 17 18 21 23 22 22 18 21 21
25 25 24 22 24 28 29 35 40 43 44 43 37 40 52 49 57 57 62 56 64 62 71 68 67 59 51 43 35 33 31 32 26 24 22 21 24 21 22 17 20 19 17
20 21 20 21 22 23 27 33 38 45 49 49 42 35 31 37 42 51 57 58 47 53 57 59 70 54 44 28 30 31 32 38 34 24 27 21 21 18 18 18 20 16 12
29 38 31 31 36 39 35 36 43 41 44 49 47 47 48 56 51 46 47 52 50 48 45 46 50 44 30 27 32 33 25 19 28 33 28 23 19 17 17 14 13 13 14
34 35 37 41 40 45 41 50 56 51 42 41 44 46 46 48 41 45 49 47 52 45 43 44 42 35 35 39 35 28 14 28 27 24 23 17 16 13 12 5 3 10 12
38 43 39 42 48 51 43 47 43 44 50 50 52 51 46 37 40 49 49 53 48 41 51 47 41 37 36 33 32 27 24 24 25 22 25 18 13 9 11 11 11 15 13
Wind_Direction_850mb
348 338 341 307 185 197 127 110 99 81 76 80 74 72 85 91 91 99 96 80 75 80 82 81 84 86 87 88 89 88 85 81 78 72 67 59 51 42 37 31 23 19 16
335 335 332 309 191 210 190 164 120 115 102 97 88 83 90 98 93 99 108 90 86 91 90 86 86 86 88 91 93 92 90 85 77 68 62 56 50 44 37 29 20 13 8
323 321 300 299 250 215 213 210 329 177 162 127 111 99 96 104 93 101 103 116 97 92 92 91 84 85 87 93 101 98 90 83 73 64 58 53 47 41 37 31 21 10 0
311 313 309 300 272 235 229 235 295 206 194 188 169 139 129 125 122 116 108 106 110 123 99 94 87 82 80 90 97 97 92 83 70 59 51 47 42 35 22 12 5 1 357
308 311 310 306 274 242 254 256 259 210 211 223 223 215 212 197 180 160 157 134 109 102 120 99 94 87 76 81 99 97 87 74 58 46 38 32 26 21 12 1 353 346 338
294 304 300 295 269 255 252 261 228 219 221 236 230 234 237 236 229 219 207 207 212 200 193 184 213 231 54 90 104 107 76 57 40 29 20 14 12 9 358 352 349 344 343
286 292 290 280 261 246 240 266 236 223 226 222 221 238 245 244 242 239 234 230 230 231 236 242 247 234 243 257 257 256 264 296 336 345 350 354 354 354 354 349 341 341 338
283 287 283 266 253 253 280 244 223 223 233 230 221 231 248 252 249 248 247 245 243 242 244 247 250 256 253 245 245 262 267 264 272 294 316 333 337 346 349 330 324 329 331
284 288 285 255 252 251 259 243 237 235 235 243 238 231 235 243 234 245 246 246 245 248 246 248 254 258 259 257 254 252 259 271 268 269 280 312 322 335 323 327 324 322 326
279 287 291 251 241 240 242 248 253 246 243 245 247 242 241 243 261 269 260 246 249 255 250 247 253 257 260 260 260 252 252 266 276 281 289 282 296 311 316 325 324 316 320
288 286 289 255 234 236 238 253 268 254 248 247 244 245 243 247 253 249 262 252 254 253 242 245 252 261 261 256 255 253 247 251 265 277 281 281 282 291 305 319 323 317 314
292 283 288 262 242 242 242 253 262 257 256 257 250 241 239 242 245 242 246 249 243 252 247 251 259 265 270 272 255 252 243 248 254 274 280 278 278 278 289 308 320 321 309
291 287 289 266 249 245 248 254 258 259 263 261 257 251 248 248 248 248 241 245 246 245 248 261 264 273 278 273 257 247 243 234 260 289 288 271 270 271 280 294 308 316 312
275 279 287 269 261 252 252 253 259 261 263 259 264 255 253 250 246 246 245 242 251 244 247 250 265 275 279 257 244 240 234 254 267 279 275 268 271 277 272 282 294 305 309
282 272 271 272 264 260 257 255 255 260 262 261 252 255 250 250 248 251 252 248 241 249 252 256 244 269 254 241 242 243 251 258 263 277 283 265 269 272 268 273 285 294 302
298 290 283 271 266 265 263 260 258 259 258 255 256 255 248 251 254 251 251 250 245 243 257 249 243 245 247 253 262 260 253 254 264 278 282 278 272 272 270 272 280 287 292
294 296 288 291 288 277 266 268 266 265 259 257 253 252 251 251 252 251 255 254 248 243 248 246 240 251 260 247 259 263 263 279 274 274 284 282 285 282 277 279 280 282 286
292 281 283 285 291 284 268 263 262 265 265 262 259 252 253 252 253 257 252 256 254 255 251 249 247 264 263 262 260 257 260 266 265 280 287 292 289 286 284 282 282 279 278
288 286 287 292 295 301 290 276 268 262 262 263 259 255 251 252 253 254 251 252 252 250 247 249 254 263 261 261 251 259 248 260 267 277 297 299 299 305 304 301 296 281 278
288 285 281 280 281 283 283 284 280 276 265 261 255 253 253 254 258 255 255 260 248 248 248 246 252 256 257 250 255 245 254 245 252 274 299 299 304 311 320 302 294 291 289
286 281 281 283 282 282 288 290 293 292 282 279 270 259 256 258 268 259 260 265 257 254 247 243 252 247 248 247 256 249 241 253 262 258 276 293 293 299 307 314 296 288 291
295 288 290 293 294 289 293 294 295 291 287 282 277 266 267 263 271 266 263 264 266 258 249 244 246 244 251 255 248 233 252 247 239 259 277 301 294 298 298 296 285 294 303
298 302 301 301 300 303 311 306 297 288 282 279 275 274 282 293 283 274 271 268 263 265 256 252 251 243 250 233 233 243 253 262 243 250 271 286 295 300 301 300 292 283 294
312 317 304 310 310 309 308 319 317 303 292 279 270 272 274 273 277 289 272 268 260 253 250 253 239 242 220 227 231 249 239 237 242 243 265 279 288 302 300 305 304 275 277
303 296 299 302 301 291 294 300 298 303 296 295 290 281 274 276 280 277 278 272 261 256 243 233 229 213 209 228 241 239 231 240 243 244 251 261 285 296 295 281 326 335 315
315 307 304 309 297 307 303 299 289 292 286 287 291 296 286 284 295 288 273 268 268 259 228 217 205 207 218 234 235 231 225 227 239 241 246 253 266 280 285 269 264 304 296